| time (UTC) | temp F | wind direction | speed MPH | gust MPH | rain 1hr in | rain 24hr in | rain mn in | humidity % | barometer mb |
| 20260906230402 | 66 | 130 | 1.0 | 3.0 | 0.00 | 0.07 | 0.00 | 50 | 1013.0 |
| 20260906225901 | 65 | 132 | 2.0 | 3.0 | 0.00 | 0.07 | 0.00 | 52 | 1013.0 |
| 20260906225401 | 65 | 132 | 2.0 | 3.0 | 0.00 | 0.07 | 0.00 | 51 | 1013.0 |
| 20260906224901 | 65 | 131 | 1.0 | 6.0 | 0.00 | 0.07 | 0.00 | 53 | 1013.0 |
| 20260906224401 | 65 | 0 | 2.0 | 6.0 | 0.00 | 0.07 | 0.00 | 53 | 1013.1 |
| 20260906223902 | 65 | 0 | 3.0 | 6.0 | 0.00 | 0.07 | 0.00 | 54 | 1013.1 |
| 20260906223401 | 65 | 125 | 3.0 | 6.0 | 0.00 | 0.07 | 0.00 | 54 | 1013.1 |
| 20260906222902 | 65 | 126 | 3.0 | 6.0 | 0.00 | 0.07 | 0.00 | 53 | 1013.2 |
| 20260906222401 | 65 | 133 | 3.0 | 6.0 | 0.00 | 0.07 | 0.00 | 53 | 1013.6 |
| 20260906221903 | 65 | 124 | 2.0 | 6.0 | 0.00 | 0.07 | 0.00 | 53 | 1013.7 |
| 20260906221402 | 65 | 214 | 2.0 | 6.0 | 0.00 | 0.07 | 0.00 | 53 | 1013.8 |
| 20260906220901 | 65 | 216 | 2.0 | 6.0 | 0.00 | 0.07 | 0.00 | 53 | 1013.8 |
| 20260906215901 | 66 | 0 | 1.0 | 4.0 | 0.00 | 0.07 | 0.00 | 52 | 1014.0 |
| 20260906215401 | 66 | 340 | 1.0 | 4.0 | 0.00 | 0.07 | 0.00 | 52 | 1014.0 |
| 20260906214902 | 65 | 13 | 1.0 | 4.0 | 0.00 | 0.07 | 0.00 | 52 | 1014.0 |
| 20260906214400 | 65 | 0 | 2.0 | 5.0 | 0.00 | 0.07 | 0.00 | 53 | 1014.0 |
| 20260906213902 | 64 | 0 | 2.0 | 5.0 | 0.00 | 0.07 | 0.00 | 53 | 1013.9 |
| 20260906213401 | 63 | 0 | 2.0 | 5.0 | 0.00 | 0.07 | 0.00 | 57 | 1013.4 |
| 20260906212900 | 63 | 0 | 3.0 | 7.0 | 0.00 | 0.07 | 0.00 | 58 | 1013.7 |
| 20260906212401 | 63 | 0 | 6.0 | 15.0 | 0.00 | 0.07 | 0.00 | 57 | 1013.4 |
| 20260906211901 | 63 | 0 | 7.0 | 15.0 | 0.00 | 0.07 | 0.00 | 58 | 1013.2 |
| 20260906211401 | 63 | 0 | 4.0 | 11.0 | 0.00 | 0.07 | 0.00 | 55 | 1013.3 |
| 20260906210401 | 64 | 0 | 2.0 | 11.0 | 0.00 | 0.07 | 0.00 | 56 | 1013.9 |
| 20260906205406 | 64 | 0 | 5.0 | 13.0 | 0.00 | 0.07 | 0.00 | 54 | 1014.3 |
| 20260906204904 | 64 | 0 | 5.0 | 17.0 | 0.00 | 0.07 | 0.00 | 53 | 1014.6 |
| 20260906204405 | 64 | 0 | 6.0 | 17.0 | 0.00 | 0.07 | 0.00 | 53 | 1014.6 |
| 20260906203904 | 64 | 0 | 5.0 | 13.0 | 0.00 | 0.07 | 0.00 | 53 | 1014.3 |
| 20260906203404 | 64 | 0 | 4.0 | 13.0 | 0.00 | 0.07 | 0.00 | 54 | 1014.4 |
| 20260906202405 | 64 | 0 | 3.0 | 10.0 | 0.00 | 0.07 | 0.00 | 54 | 1014.3 |
| 20260906201905 | 64 | 0 | 4.0 | 12.0 | 0.00 | 0.07 | 0.00 | 54 | 1014.2 |
| 20260906200906 | 64 | 0 | 3.0 | 12.0 | 0.00 | 0.07 | 0.00 | 53 | 1014.1 |
| 20260906200404 | 64 | 0 | 3.0 | 14.0 | 0.00 | 0.07 | 0.00 | 53 | 1014.0 |
| 20260906195906 | 65 | 0 | 5.0 | 18.0 | 0.00 | 0.07 | 0.00 | 51 | 1014.0 |
| 20260906195403 | 65 | 0 | 6.0 | 18.0 | 0.00 | 0.07 | 0.00 | 50 | 1014.0 |
| 20260906194904 | 65 | 124 | 4.0 | 13.0 | 0.00 | 0.07 | 0.00 | 49 | 1014.1 |
| 20260906194404 | 66 | 142 | 1.0 | 10.0 | 0.00 | 0.07 | 0.00 | 50 | 1014.1 |
| 20260906193904 | 66 | 0 | 0.0 | 3.0 | 0.00 | 0.07 | 0.00 | 51 | 1014.1 |
| 20260906193403 | 66 | 0 | 1.0 | 3.0 | 0.00 | 0.07 | 0.00 | 50 | 1014.1 |
| 20260906192901 | 66 | 150 | 1.0 | 3.0 | 0.00 | 0.07 | 0.00 | 53 | 1014.1 |
| 20260906192400 | 66 | 132 | 2.0 | 3.0 | 0.00 | 0.07 | 0.00 | 51 | 1014.1 |
| 20260906191902 | 66 | 132 | 1.0 | 3.0 | 0.00 | 0.07 | 0.00 | 51 | 1014.1 |
| 20260906191401 | 66 | 130 | 1.0 | 3.0 | 0.00 | 0.07 | 0.00 | 49 | 1014.1 |
| 20260906190903 | 66 | 130 | 1.0 | 3.0 | 0.00 | 0.07 | 0.00 | 50 | 1014.2 |
| 20260906190400 | 67 | 129 | 1.0 | 2.0 | 0.00 | 0.07 | 0.00 | 49 | 1014.2 |
| 20260906185902 | 67 | 132 | 0.0 | 2.0 | 0.00 | 0.07 | 0.00 | 50 | 1014.3 |
| 20260906185400 | 66 | 129 | 1.0 | 3.0 | 0.00 | 0.07 | 0.00 | 50 | 1014.2 |
| 20260906184902 | 66 | 129 | 2.0 | 5.0 | 0.00 | 0.07 | 0.00 | 52 | 1014.3 |
| 20260906183902 | 65 | 227 | 2.0 | 6.0 | 0.00 | 0.07 | 0.00 | 52 | 1014.5 |
| 20260906183401 | 64 | 67 | 3.0 | 7.0 | 0.00 | 0.07 | 0.00 | 53 | 1014.6 |
| 20260906182401 | 63 | 116 | 2.0 | 4.0 | 0.00 | 0.07 | 0.00 | 56 | 1014.6 |
| 20260906181901 | 63 | 116 | 3.0 | 6.0 | 0.00 | 0.07 | 0.00 | 57 | 1014.8 |
| 20260906181404 | 63 | 117 | 3.0 | 6.0 | 0.00 | 0.07 | 0.00 | 55 | 1014.8 |
| 20260906180406 | 63 | 117 | 3.0 | 6.0 | 0.00 | 0.07 | 0.00 | 56 | 1015.0 |
| 20260906175405 | 62 | 0 | 2.0 | 3.0 | 0.00 | 0.07 | 0.00 | 57 | 1015.0 |
| 20260906174904 | 62 | 0 | 2.0 | 4.0 | 0.00 | 0.07 | 0.00 | 58 | 1014.9 |
| 20260906174404 | 62 | 0 | 2.0 | 4.0 | 0.00 | 0.07 | 0.00 | 57 | 1015.0 |
| 20260906173402 | 61 | 0 | 3.0 | 4.0 | 0.00 | 0.07 | 0.00 | 59 | 1015.1 |
| 20260906172901 | 61 | 0 | 4.0 | 5.0 | 0.00 | 0.07 | 0.00 | 58 | 1015.0 |
| 20260906172401 | 61 | 0 | 4.0 | 5.0 | 0.00 | 0.07 | 0.00 | 59 | 1015.0 |
| 20260906171901 | 61 | 0 | 4.0 | 5.0 | 0.00 | 0.07 | 0.00 | 61 | 1015.0 |
| 20260906171402 | 60 | 0 | 3.0 | 5.0 | 0.00 | 0.07 | 0.00 | 62 | 1015.1 |
| 20260906170401 | 60 | 0 | 3.0 | 5.0 | 0.00 | 0.07 | 0.00 | 62 | 1015.2 |
| 20260906165901 | 59 | 0 | 3.0 | 5.0 | 0.00 | 0.07 | 0.00 | 62 | 1015.1 |
| 20260906165401 | 59 | 0 | 3.0 | 4.0 | 0.00 | 0.07 | 0.00 | 62 | 1015.3 |
| 20260906164901 | 59 | 0 | 3.0 | 4.0 | 0.00 | 0.07 | 0.00 | 63 | 1015.4 |
| 20260906164401 | 59 | 0 | 2.0 | 8.0 | 0.00 | 0.07 | 0.00 | 63 | 1015.4 |
| 20260906163904 | 58 | 0 | 3.0 | 8.0 | 0.00 | 0.07 | 0.00 | 63 | 1015.4 |
| 20260906162405 | 58 | 0 | 2.0 | 4.0 | 0.00 | 0.07 | 0.00 | 62 | 1015.5 |
| 20260906161903 | 58 | 0 | 2.0 | 5.0 | 0.00 | 0.07 | 0.00 | 62 | 1015.4 |
| 20260906160901 | 58 | 0 | 2.0 | 4.0 | 0.00 | 0.07 | 0.00 | 64 | 1015.5 |
| 20260906155901 | 57 | 0 | 3.0 | 4.0 | 0.00 | 0.07 | 0.00 | 64 | 1015.4 |
| 20260906155401 | 57 | 0 | 3.0 | 5.0 | 0.00 | 0.07 | 0.00 | 64 | 1015.5 |
| 20260906154900 | 57 | 0 | 3.0 | 5.0 | 0.00 | 0.07 | 0.00 | 66 | 1015.6 |
| 20260906153900 | 58 | 0 | 2.0 | 4.0 | 0.00 | 0.07 | 0.00 | 62 | 1015.9 |
| 20260906152901 | 58 | 0 | 1.0 | 3.0 | 0.00 | 0.07 | 0.00 | 63 | 1015.7 |
| 20260906152401 | 57 | 0 | 1.0 | 3.0 | 0.00 | 0.07 | 0.00 | 64 | 1015.7 |
| 20260906151902 | 56 | 0 | 1.0 | 3.0 | 0.00 | 0.07 | 0.00 | 65 | 1015.7 |
| 20260906151401 | 55 | 0 | 1.0 | 4.0 | 0.00 | 0.07 | 0.00 | 67 | 1015.9 |
| 20260906150901 | 55 | 0 | 1.0 | 4.0 | 0.00 | 0.07 | 0.00 | 67 | 1015.9 |
| 20260906145859 | 54 | 348 | 2.0 | 5.0 | 0.00 | 0.07 | 0.00 | 67 | 1016.0 |
| 20260906143843 | 54 | 325 | 1.0 | 4.0 | 0.00 | 0.07 | 0.00 | 68 | 1016.0 |
| 20260906143343 | 54 | 350 | 0.0 | 4.0 | 0.00 | 0.07 | 0.00 | 67 | 1016.0 |
| 20260906142339 | 54 | 350 | 1.0 | 4.0 | 0.00 | 0.07 | 0.00 | 68 | 1016.1 |
| 20260906141839 | 54 | 344 | 2.0 | 4.0 | 0.00 | 0.07 | 0.00 | 68 | 1016.0 |
| 20260906141339 | 54 | 340 | 2.0 | 5.0 | 0.00 | 0.07 | 0.00 | 68 | 1016.0 |
| 20260906140837 | 54 | 321 | 2.0 | 5.0 | 0.00 | 0.07 | 0.00 | 69 | 1015.9 |
| 20260906135335 | 55 | 340 | 1.0 | 3.0 | 0.00 | 0.07 | 0.00 | 70 | 1015.6 |
| 20260906134833 | 55 | 341 | 1.0 | 3.0 | 0.00 | 0.07 | 0.00 | 70 | 1015.7 |
| 20260906134334 | 55 | 340 | 1.0 | 4.0 | 0.00 | 0.07 | 0.00 | 70 | 1015.9 |
| 20260906133832 | 55 | 340 | 2.0 | 4.0 | 0.00 | 0.07 | 0.00 | 70 | 1015.9 |
| 20260906133337 | 55 | 346 | 2.0 | 4.0 | 0.00 | 0.07 | 0.00 | 70 | 1015.7 |
| 20260906132831 | 55 | 337 | 2.0 | 7.0 | 0.00 | 0.07 | 0.00 | 71 | 1016.0 |
| 20260906131829 | 55 | 337 | 1.0 | 3.0 | 0.00 | 0.07 | 0.00 | 70 | 1015.9 |
| 20260906131329 | 55 | 152 | 1.0 | 3.0 | 0.00 | 0.07 | 0.00 | 69 | 1015.7 |
| 20260906130829 | 56 | 320 | 1.0 | 2.0 | 0.00 | 0.07 | 0.00 | 69 | 1015.6 |
| 20260906130330 | 56 | 348 | 1.0 | 3.0 | 0.00 | 0.07 | 0.00 | 69 | 1015.5 |
| 20260906125829 | 56 | 355 | 2.0 | 5.0 | 0.00 | 0.07 | 0.00 | 68 | 1015.6 |
| 20260906125330 | 56 | 329 | 3.0 | 9.0 | 0.00 | 0.07 | 0.00 | 68 | 1015.5 |
| 20260906124829 | 56 | 344 | 2.0 | 9.0 | 0.00 | 0.07 | 0.00 | 69 | 1015.5 |
| 20260906124329 | 56 | 59 | 1.0 | 7.0 | 0.00 | 0.07 | 0.00 | 69 | 1015.5 |
| 20260906123830 | 56 | 315 | 1.0 | 2.0 | 0.00 | 0.07 | 0.00 | 68 | 1015.9 |
| 20260906122829 | 56 | 315 | 1.0 | 5.0 | 0.00 | 0.07 | 0.00 | 70 | 1016.1 |
| 20260906122329 | 56 | 315 | 2.0 | 5.0 | 0.00 | 0.07 | 0.00 | 70 | 1016.1 |
| 20260906121829 | 56 | 306 | 3.0 | 5.0 | 0.00 | 0.07 | 0.00 | 70 | 1016.0 |
| 20260906121329 | 57 | 302 | 3.0 | 5.0 | 0.00 | 0.07 | 0.00 | 69 | 1016.0 |
| 20260906120830 | 57 | 329 | 2.0 | 5.0 | 0.00 | 0.07 | 0.00 | 68 | 1015.9 |
| 20260906120330 | 58 | 49 | 3.0 | 7.0 | 0.00 | 0.07 | 0.00 | 67 | 1016.1 |
| 20260906115329 | 58 | 119 | 4.0 | 7.0 | 0.00 | 0.07 | 0.00 | 68 | 1016.4 |
| 20260906114830 | 58 | 115 | 3.0 | 6.0 | 0.00 | 0.07 | 0.00 | 68 | 1016.5 |
| 20260906114328 | 58 | 113 | 2.0 | 6.0 | 0.00 | 0.07 | 0.00 | 69 | 1016.5 |
| 20260906113829 | 57 | 100 | 0.0 | 5.0 | 0.00 | 0.07 | 0.00 | 69 | 1016.5 |
| 20260906112829 | 57 | 252 | 0.0 | 2.0 | 0.00 | 0.07 | 0.00 | 68 | 1016.7 |
| 20260906112330 | 57 | 252 | 1.0 | 2.0 | 0.00 | 0.07 | 0.00 | 68 | 1016.6 |
| 20260906111830 | 57 | 253 | 2.0 | 5.0 | 0.00 | 0.07 | 0.00 | 68 | 1016.6 |
| 20260906111327 | 57 | 253 | 2.0 | 6.0 | 0.00 | 0.07 | 0.00 | 68 | 1016.5 |
| 20260906110827 | 57 | 257 | 3.0 | 7.0 | 0.00 | 0.07 | 0.00 | 68 | 1016.5 |
| 20260906110328 | 57 | 122 | 3.0 | 9.0 | 0.00 | 0.07 | 0.00 | 69 | 1016.6 |
| 20260906105826 | 56 | 125 | 1.0 | 9.0 | 0.00 | 0.07 | 0.00 | 71 | 1016.8 |
| 20260906105327 | 55 | 207 | 0.0 | 0.0 | 0.00 | 0.07 | 0.00 | 70 | 1017.1 |
| 20260906104824 | 55 | 207 | 0.0 | 2.0 | 0.00 | 0.07 | 0.00 | 70 | 1016.9 |
| 20260906104325 | 56 | 194 | 3.0 | 11.0 | 0.00 | 0.07 | 0.00 | 70 | 1016.8 |
| 20260906103825 | 55 | 194 | 5.0 | 11.0 | 0.00 | 0.07 | 0.00 | 69 | 1016.7 |
| 20260906103324 | 54 | 111 | 3.0 | 10.0 | 0.00 | 0.07 | 0.00 | 72 | 1016.5 |
| 20260906102823 | 54 | 90 | 2.0 | 4.0 | 0.00 | 0.07 | 0.00 | 72 | 1016.2 |
| 20260906102322 | 54 | 330 | 2.0 | 4.0 | 0.00 | 0.07 | 0.00 | 71 | 1016.0 |
| 20260906101817 | 55 | 285 | 1.0 | 4.0 | 0.00 | 0.07 | 0.00 | 70 | 1015.7 |
| 20260906101311 | 55 | 179 | 1.0 | 4.0 | 0.00 | 0.07 | 0.00 | 69 | 1016.1 |
| 20260906100808 | 55 | 160 | 1.0 | 5.0 | 0.00 | 0.07 | 0.00 | 69 | 1016.4 |
| 20260906100306 | 55 | 231 | 2.0 | 5.0 | 0.00 | 0.07 | 0.00 | 69 | 1016.7 |
| 20260906095306 | 55 | 221 | 2.0 | 6.0 | 0.00 | 0.07 | 0.00 | 69 | 1016.6 |
| 20260906094806 | 55 | 205 | 2.0 | 7.0 | 0.00 | 0.07 | 0.00 | 68 | 1016.3 |
| 20260906094305 | 55 | 205 | 3.0 | 7.0 | 0.00 | 0.07 | 0.00 | 69 | 1016.5 |
| 20260906093806 | 55 | 218 | 3.0 | 6.0 | 0.00 | 0.07 | 0.00 | 69 | 1016.6 |
| 20260906093305 | 55 | 230 | 2.0 | 5.0 | 0.00 | 0.07 | 0.00 | 68 | 1016.6 |
| 20260906091805 | 55 | 217 | 2.0 | 5.0 | 0.00 | 0.07 | 0.00 | 69 | 1016.6 |
| 20260906091305 | 55 | 259 | 2.0 | 5.0 | 0.00 | 0.07 | 0.00 | 69 | 1016.5 |
| 20260906090805 | 56 | 234 | 1.0 | 4.0 | 0.00 | 0.07 | 0.00 | 70 | 1016.4 |
| 20260906090305 | 55 | 232 | 1.0 | 4.0 | 0.00 | 0.07 | 0.00 | 70 | 1016.3 |
| 20260906085306 | 56 | 168 | 1.0 | 4.0 | 0.00 | 0.07 | 0.00 | 71 | 1016.1 |
| 20260906084306 | 56 | 242 | 3.0 | 8.0 | 0.00 | 0.07 | 0.00 | 70 | 1016.0 |
| 20260906083803 | 56 | 237 | 2.0 | 6.0 | 0.00 | 0.07 | 0.00 | 70 | 1016.1 |
| 20260906083303 | 56 | 0 | 1.0 | 3.0 | 0.00 | 0.07 | 0.00 | 72 | 1016.1 |
| 20260906082804 | 56 | 199 | 2.0 | 7.0 | 0.00 | 0.07 | 0.00 | 73 | 1016.1 |
| 20260906082305 | 56 | 128 | 2.0 | 7.0 | 0.00 | 0.07 | 0.00 | 73 | 1016.2 |
| 20260906081803 | 56 | 285 | 2.0 | 4.0 | 0.00 | 0.07 | 0.00 | 73 | 1016.2 |
| 20260906081303 | 56 | 313 | 2.0 | 4.0 | 0.00 | 0.07 | 0.00 | 73 | 1016.3 |
| 20260906080802 | 56 | 249 | 2.0 | 4.0 | 0.00 | 0.07 | 0.00 | 72 | 1016.3 |
| 20260906080302 | 56 | 242 | 1.0 | 4.0 | 0.00 | 0.07 | 0.00 | 71 | 1016.2 |
| 20260906075301 | 57 | 0 | 1.0 | 3.0 | 0.00 | 0.07 | 0.00 | 70 | 1016.3 |
| 20260906074801 | 57 | 316 | 0.0 | 1.0 | 0.00 | 0.07 | 0.00 | 69 | 1016.6 |
| 20260906074302 | 57 | 0 | 1.0 | 3.0 | 0.00 | 0.07 | 0.00 | 69 | 1016.7 |
| 20260906073802 | 57 | 317 | 1.0 | 4.0 | 0.00 | 0.07 | 0.00 | 70 | 1016.7 |
| 20260906072801 | 57 | 173 | 2.0 | 4.0 | 0.00 | 0.07 | 0.00 | 71 | 1016.6 |
| 20260906072301 | 57 | 306 | 2.0 | 4.0 | 0.00 | 0.07 | 0.00 | 72 | 1016.4 |
| 20260906071801 | 57 | 249 | 2.0 | 4.0 | 0.00 | 0.07 | 0.00 | 73 | 1016.4 |
| 20260906070803 | 57 | 0 | 0.0 | 4.0 | 0.00 | 0.07 | 0.00 | 70 | 1016.5 |
| 20260906070303 | 58 | 310 | 2.0 | 6.0 | 0.00 | 0.07 | 0.00 | 71 | 1016.5 |
| 20260906065804 | 57 | 310 | 2.0 | 6.0 | 0.00 | 0.07 | 0.00 | 70 | 1016.6 |
| 20260906065305 | 57 | 120 | 1.0 | 6.0 | 0.00 | 0.07 | 0.00 | 74 | 1016.7 |
| 20260906064805 | 57 | 49 | 0.0 | 1.0 | 0.00 | 0.07 | 0.00 | 72 | 1016.7 |
| 20260906064303 | 56 | 58 | 0.0 | 2.0 | 0.00 | 0.07 | 0.00 | 72 | 1016.9 |
| 20260906063805 | 56 | 61 | 1.0 | 2.0 | 0.00 | 0.07 | 0.00 | 70 | 1016.8 |
| 20260906063302 | 57 | 61 | 1.0 | 2.0 | 0.00 | 0.07 | 0.00 | 70 | 1016.7 |
| 20260906062802 | 57 | 0 | 1.0 | 2.0 | 0.00 | 0.07 | 0.00 | 70 | 1016.7 |
| 20260906062305 | 57 | 0 | 1.0 | 3.0 | 0.00 | 0.07 | 0.00 | 70 | 1016.7 |
| 20260906061803 | 57 | 0 | 1.0 | 5.0 | 0.00 | 0.07 | 0.00 | 71 | 1016.7 |
| 20260906061305 | 57 | 76 | 1.0 | 5.0 | 0.00 | 0.07 | 0.00 | 70 | 1016.8 |
| 20260906060803 | 57 | 9 | 0.0 | 3.0 | 0.00 | 0.07 | 0.00 | 70 | 1017.1 |
| 20260906060303 | 57 | 0 | 1.0 | 4.0 | 0.00 | 0.07 | 0.00 | 70 | 1017.2 |
| 20260906055804 | 58 | 0 | 2.0 | 8.0 | 0.00 | 0.07 | 0.07 | 69 | 1017.1 |
| 20260906055306 | 58 | 0 | 2.0 | 8.0 | 0.00 | 0.07 | 0.07 | 68 | 1016.9 |
| 20260906054802 | 60 | 0 | 1.0 | 7.0 | 0.00 | 0.07 | 0.07 | 67 | 1016.8 |
| 20260906054301 | 60 | 198 | 2.0 | 9.0 | 0.00 | 0.07 | 0.07 | 63 | 1016.8 |
| 20260906053801 | 58 | 122 | 2.0 | 9.0 | 0.04 | 0.07 | 0.07 | 64 | 1016.6 |
| 20260906053302 | 58 | 289 | 2.0 | 6.0 | 0.07 | 0.07 | 0.07 | 69 | 1016.6 |
| 20260906052801 | 58 | 250 | 2.0 | 6.0 | 0.07 | 0.07 | 0.07 | 67 | 1016.6 |
| 20260906052305 | 57 | 0 | 3.0 | 6.0 | 0.07 | 0.07 | 0.07 | 71 | 1016.6 |
| 20260906051802 | 57 | 0 | 3.0 | 6.0 | 0.07 | 0.07 | 0.07 | 71 | 1016.7 |
| 20260906051301 | 58 | 0 | 3.0 | 6.0 | 0.07 | 0.07 | 0.07 | 71 | 1016.8 |
| 20260906050802 | 57 | 0 | 3.0 | 5.0 | 0.07 | 0.07 | 0.07 | 71 | 1016.8 |
| 20260906050300 | 58 | 0 | 3.0 | 6.0 | 0.07 | 0.07 | 0.07 | 71 | 1016.9 |
| 20260906045801 | 58 | 0 | 2.0 | 6.0 | 0.07 | 0.07 | 0.07 | 71 | 1017.1 |
| 20260906045305 | 59 | 0 | 2.0 | 5.0 | 0.07 | 0.07 | 0.07 | 68 | 1017.2 |
| 20260906044302 | 61 | 0 | 2.0 | 5.0 | 0.07 | 0.07 | 0.06 | 63 | 1017.7 |
| 20260906043803 | 64 | 0 | 3.0 | 9.0 | 0.03 | 0.03 | 0.02 | 57 | 1017.5 |
| 20260906042801 | 67 | 213 | 2.0 | 11.0 | 0.00 | 0.00 | 0.00 | 46 | 1017.2 |
| 20260906042301 | 68 | 163 | 3.0 | 13.0 | 0.00 | 0.00 | 0.00 | 45 | 1016.7 |
| 20260906041801 | 68 | 140 | 4.0 | 13.0 | 0.00 | 0.00 | 0.00 | 43 | 1016.7 |
| 20260906041301 | 68 | 124 | 5.0 | 11.0 | 0.00 | 0.00 | 0.00 | 45 | 1016.7 |
| 20260906040801 | 68 | 207 | 6.0 | 11.0 | 0.00 | 0.00 | 0.00 | 44 | 1016.6 |
| 20260906040301 | 66 | 0 | 3.0 | 11.0 | 0.00 | 0.00 | 0.00 | 45 | 1016.5 |
| 20260906035801 | 64 | 0 | 1.0 | 10.0 | 0.00 | 0.00 | 0.00 | 52 | 1016.3 |
| 20260906035305 | 63 | 0 | 1.0 | 3.0 | 0.00 | 0.00 | 0.00 | 49 | 1016.4 |
| 20260906034801 | 63 | 0 | 2.0 | 4.0 | 0.00 | 0.00 | 0.00 | 51 | 1016.2 |
| 20260906034301 | 63 | 0 | 2.0 | 4.0 | 0.00 | 0.00 | 0.00 | 51 | 1016.3 |
| 20260906033302 | 63 | 0 | 2.0 | 4.0 | 0.00 | 0.00 | 0.00 | 54 | 1016.2 |
| 20260906032801 | 63 | 0 | 2.0 | 5.0 | 0.00 | 0.00 | 0.00 | 52 | 1016.1 |
| 20260906032305 | 63 | 0 | 0.0 | 5.0 | 0.00 | 0.00 | 0.00 | 51 | 1016.0 |
| 20260906031801 | 63 | 0 | 0.0 | 0.0 | 0.00 | 0.00 | 0.00 | 53 | 1016.1 |
| 20260906031300 | 63 | 0 | 0.0 | 0.0 | 0.00 | 0.00 | 0.00 | 54 | 1016.0 |
| 20260906030803 | 63 | 0 | 0.0 | 0.0 | 0.00 | 0.00 | 0.00 | 59 | 1015.9 |
| 20260906030300 | 63 | 0 | 0.0 | 0.0 | 0.00 | 0.00 | 0.00 | 58 | 1015.9 |
| 20260906025802 | 63 | 0 | 0.0 | 0.0 | 0.00 | 0.00 | 0.00 | 58 | 1015.9 |
| 20260906025306 | 64 | 0 | 0.0 | 0.0 | 0.00 | 0.00 | 0.00 | 57 | 1015.9 |
| 20260906024803 | 64 | 0 | 0.0 | 0.0 | 0.00 | 0.00 | 0.00 | 56 | 1015.9 |
| 20260906024301 | 64 | 0 | 0.0 | 0.0 | 0.00 | 0.00 | 0.00 | 55 | 1015.7 |
| 20260906023803 | 64 | 0 | 0.0 | 0.0 | 0.00 | 0.00 | 0.00 | 53 | 1015.6 |
| 20260906023301 | 65 | 0 | 0.0 | 0.0 | 0.00 | 0.00 | 0.00 | 53 | 1015.6 |
| 20260906022301 | 65 | 0 | 0.0 | 0.0 | 0.00 | 0.00 | 0.00 | 48 | 1015.4 |
| 20260906021803 | 66 | 0 | 0.0 | 0.0 | 0.00 | 0.00 | 0.00 | 47 | 1015.4 |
| 20260906021303 | 66 | 0 | 0.0 | 0.0 | 0.00 | 0.00 | 0.00 | 47 | 1015.4 |
| 20260906020801 | 66 | 0 | 0.0 | 0.0 | 0.00 | 0.00 | 0.00 | 45 | 1015.4 |
| 20260906020300 | 66 | 0 | 0.0 | 2.0 | 0.00 | 0.00 | 0.00 | 48 | 1015.4 |
| 20260906015802 | 67 | 0 | 0.0 | 2.0 | 0.00 | 0.00 | 0.00 | 46 | 1015.3 |
| 20260906015305 | 67 | 0 | 0.0 | 0.0 | 0.00 | 0.00 | 0.00 | 43 | 1015.3 |
| 20260906014302 | 68 | 0 | 0.0 | 0.0 | 0.00 | 0.00 | 0.00 | 43 | 1015.5 |
| 20260906013301 | 68 | 0 | 1.0 | 3.0 | 0.00 | 0.00 | 0.00 | 42 | 1015.5 |
| 20260906012301 | 68 | 0 | 1.0 | 2.0 | 0.00 | 0.00 | 0.00 | 40 | 1015.6 |
| 20260906011300 | 69 | 38 | 0.0 | 2.0 | 0.00 | 0.00 | 0.00 | 42 | 1015.5 |
| 20260906010803 | 69 | 38 | 1.0 | 3.0 | 0.00 | 0.00 | 0.00 | 41 | 1015.4 |
| 20260906005801 | 69 | 343 | 2.0 | 4.0 | 0.00 | 0.00 | 0.00 | 37 | 1015.5 |
| 20260906005301 | 70 | 345 | 2.0 | 5.0 | 0.00 | 0.00 | 0.00 | 37 | 1015.4 |
| 20260906004804 | 70 | 348 | 2.0 | 5.0 | 0.00 | 0.00 | 0.00 | 37 | 1015.5 |
| 20260906004302 | 70 | 331 | 2.0 | 4.0 | 0.00 | 0.00 | 0.00 | 37 | 1015.4 |
| 20260906003303 | 71 | 26 | 2.0 | 4.0 | 0.00 | 0.00 | 0.00 | 38 | 1015.4 |
| 20260906002803 | 71 | 331 | 1.0 | 4.0 | 0.00 | 0.00 | 0.00 | 36 | 1015.6 |
| 20260906002300 | 72 | 317 | 1.0 | 4.0 | 0.00 | 0.00 | 0.00 | 34 | 1015.6 |
| 20260906001801 | 73 | 355 | 1.0 | 3.0 | 0.00 | 0.00 | 0.00 | 32 | 1015.7 |
| 20260906000801 | 75 | 16 | 0.0 | 2.0 | 0.00 | 0.00 | 0.00 | 31 | 1015.7 |
| 20260906000300 | 75 | 25 | 0.0 | 2.0 | 0.00 | 0.00 | 0.00 | 32 | 1015.9 |
| 20260905235301 | 75 | 32 | 0.0 | 2.0 | 0.00 | 0.00 | 0.00 | 32 | 1015.9 |
| 20260905234757 | 74 | 33 | 0.0 | 1.0 | 0.00 | 0.00 | 0.00 | 30 | 1016.0 |
| 20260905233746 | 74 | 64 | 0.0 | 2.0 | 0.00 | 0.00 | 0.00 | 34 | 1016.1 |
| 20260905233239 | 74 | 55 | 0.0 | 2.0 | 0.00 | 0.00 | 0.00 | 33 | 1016.1 |
| 20260905232239 | 72 | 355 | 0.0 | 3.0 | 0.00 | 0.00 | 0.00 | 34 | 1016.2 |
| 20260905231238 | 71 | 22 | 1.0 | 2.0 | 0.00 | 0.00 | 0.00 | 36 | 1016.2 |